Flag for Germany Weather past 2 weeks in Emsdetten, North Rhine-Westphalia, Germany

Now
64 °F

Fog.


Feels Like: 64 °F
Forecast: 60 / 73 °F
Wind: 5 mph from Northeast

Location: Muenster / Osnabrueck

Current Time: Jul 29, 2014 at 7:16:48 AM

Latest Report: Jul 29, 2014 at 6:50 AM


Visibility: 3 mi

Pressure: 29.83 "Hg

Humidity: 100%

Dew point: 64 °F

Location of EmsdettenLocation

Historic Weather in Emsdetten — Graph

°F

Emsdetten temperature yesterday

Maximum temperature yesterday: 81 °F (at 1:50 PM)
Minimum temperature yesterday: 61 °F (at 2:50 AM)
Average temperature yesterday: 69 °F

Past Weeks' High & Low Weather Summary

 TemperatureHumidityPressure
High93 °F (Jul 19, 2:20 PM)100% (Jul 15, 2:50 AM)30.18 "Hg (Jul 15, 2:50 AM)
Low52 °F (Jul 15, 2:50 AM)19% (Jul 19, 3:20 PM)29.74 "Hg (Jul 20, 4:50 AM)
Average70 °F74%29.98 "Hg
* Reported Jul 14 6:20 AM — Jul 29 6:20 AM, Emsdetten, Weather by CustomWeather, © 2014

Note: Actual official high and low records may vary slightly from our data, if they occured in-between our weather recording intervals... More about our weather records

Advertising

Emsdetten weather history for previous 24 hours

 ConditionsComfort  
Time TempWeatherWind HumidityBarometerVisibility
6:20 AM
Jul 29
64 °FFog.5 mph100%29.83 "Hg2 mi
5:50 AM64 °FFog.3 mph100%29.83 "Hg2 mi
5:20 AM63 °FMild.2 mph100%29.83 "Hg3 mi
4:50 AM64 °FFog.1 mph100%29.83 "Hg4 mi
4:20 AM64 °FFog.2 mph100%29.83 "Hg5 mi
3:50 AM64 °FFog.3 mph100%29.83 "Hg5 mi
3:20 AM64 °FFog.3 mph100%29.83 "Hg5 mi
2:50 AM64 °FFog.3 mph100%29.83 "Hg5 mi
2:20 AM64 °FFog.5 mph100%29.83 "Hg6 mi
1:50 AM64 °FFog.6 mph100%29.83 "Hg6 mi
1:20 AM64 °FFog.2 mph100%29.86 "Hg6 mi
12:50 AM64 °FFog.3 mph100%29.86 "HgN/A
12:20 AM66 °FPassing clouds.2 mph94%29.86 "HgN/A
10:50 PM
Jul 28
66 °FThunderstorms. Partly cloudy.6 mph100%29.86 "HgN/A
10:20 PM64 °FStrong thunderstorms. Broken clouds.5 mph100%29.89 "Hg4 mi
9:50 PM64 °FStrong thunderstorms. Broken clouds.9 mph100%29.92 "Hg4 mi
9:20 PM66 °FThunderstorms. Broken clouds.6 mph88%29.92 "HgN/A
8:50 PM66 °FThunderstorms. Partly sunny.5 mph88%29.86 "HgN/A
8:20 PM66 °FThunderstorms. Partly sunny.8 mph88%29.86 "HgN/A
7:50 PM66 °FThunderstorms. Broken clouds.7 mph88%29.86 "HgN/A
7:20 PM70 °FStrong thunderstorms. Broken clouds.5 mph78%29.83 "Hg6 mi
6:50 PM70 °FStrong thunderstorms. Broken clouds.8 mph83%29.83 "Hg5 mi
6:20 PM72 °FLots of rain. Broken clouds.10 mph73%29.83 "Hg6 mi
5:50 PM72 °FStrong thunderstorms. Broken clouds.5 mph65%29.83 "Hg6 mi
5:20 PM73 °FStrong thunderstorms. Broken clouds.8 mph74%29.83 "Hg6 mi
4:50 PM77 °FThunderstorms. Broken clouds.8 mph65%29.83 "Hg6 mi
4:20 PM79 °FSprinkles. Partly sunny.8 mph58%29.83 "HgN/A
3:50 PM79 °FScattered showers. Partly sunny.10 mph58%29.83 "HgN/A
3:20 PM79 °FScattered showers. Broken clouds.12 mph58%29.83 "HgN/A
2:50 PM81 °FScattered clouds.12 mph54%29.86 "HgN/A
2:20 PM79 °FScattered clouds.12 mph61%29.86 "HgN/A
1:50 PM81 °FScattered clouds.15 mph58%29.86 "HgN/A
1:20 PM79 °FScattered clouds.10 mph58%29.86 "HgN/A
12:50 PM77 °FScattered clouds.10 mph61%29.89 "HgN/A
12:20 PM77 °FPartly sunny.12 mph61%29.89 "HgN/A
11:50 AM75 °FPartly sunny.12 mph65%29.89 "HgN/A
11:20 AM75 °FBroken clouds.12 mph69%29.89 "HgN/A
10:50 AM73 °FBroken clouds.10 mph69%29.89 "HgN/A
10:20 AM73 °FPartly sunny.8 mph69%29.92 "HgN/A
9:50 AM73 °FBroken clouds.8 mph69%29.92 "HgN/A
9:20 AM72 °FPartly sunny.8 mph78%29.92 "HgN/A
8:50 AM70 °FPartly sunny.7 mph83%29.92 "HgN/A
8:20 AM68 °FClear.7 mph88%29.92 "Hg6 mi
7:50 AM66 °FClear.7 mph94%29.92 "Hg4 mi
7:20 AM64 °FFog.5 mph100%29.92 "Hg3 mi
Weather by CustomWeather, © 2014

See weather overviewHow to use our weather pages